Погода в Куанде

Россия / Забайкальский край     56°19′35″N   116°04′48″E
темп.,
°C
ветер,
м/с
пор.,
м/с
влажн.,
%
обл.,
%
осадки,
мм/ч
давл.,
гПа
погр.,
м
25 февраля, чт
чт2500:00−28зюз118778 0.0 103119
03:00−30юз119067 0.0 103219
06:00−31ююз11920 0.0 103219
09:00−31юз01910 0.0 103219
12:00−25с21870 0.0 1030187
15:00−22с21859 0.0 1028271
18:00−25св009529 0.0 103020
21:00−29ююз119414 0.0 103319
26 февраля, пт
пт2600:00−28ююв22840 0.0 103319
03:00−30ю22810 0.0 103319
06:00−29юв237627 0.0 103324
09:00−26ююв228263 0.0 103081
12:00−22ююв1395100 0.2 1027256
15:00−19зюз1292100 0.6 1024342
18:00−20з1198100 0.6 1024122
21:00−23зюз00100100 0.8 102420
27 февраля, сб
сб2700:00−23ссв0198100 0.0 102320
03:00−23з1199100 0.1 102122
06:00−23з1299100 0.7 102177
09:00−22зсз2399100 1.6 1021151
12:00−19зсз5796100 0.8 1021697
15:00−18сз6787100 1.4 10211177
18:00−20сз6884100 0.3 1024749
21:00−24зсз4691100 0.3 1029126
28 февраля, вс
вс2800:00−28з448987 0.0 103346
03:00−30з348578 0.0 103531
06:00−31з348183 0.0 103830
09:00−32зсз228181 0.0 104019
12:00−27сз248285 0.0 1038280
15:00−24сз237985 0.0 1037532
18:00−27ссв118986 0.0 103819
21:00−30ююв228576 0.0 104120
1 марта, пн
пн100:00−31ю117985 0.0 104219
03:00−32ю117690 0.0 104119
06:00−32ю1177100 0.0 104119
09:00−32з1181100 0.0 104019
12:00−28ссз1181100 0.0 1038195
15:00−25сз2278100 0.0 1036281
18:00−28с118996 0.0 103619
21:00−32ю118383 0.0 103819